Flag for Australia Weather past 2 weeks in Adelaide, South Australia, Australia

Now
57 °F

Partly cloudy.


Feels Like: 55 °F
Forecast: 52 / 58 °F
Wind: 8 mph from Northwest

Location: Adelaide Airport

Current Time: May 30, 2015 at 8:29:37 PM

Latest Report: May 30, 2015 at 8:00 PM


Visibility: N/A

Pressure: 30.12 "Hg

Humidity: 82%

Dew point: 52 °F

Location of AdelaideLocation

Historic Weather in Adelaide — Graph

°F

Adelaide temperature yesterday

Maximum temperature yesterday: 61 °F (at 10:30 AM)
Minimum temperature yesterday: 50 °F (at 11:00 PM)
Average temperature yesterday: 56 °F

Past Weeks' High & Low Weather Summary

 TemperatureHumidityPressure
High70 °F (May 18, 10:30 AM)100% (May 17, 3:00 AM)30.63 "Hg (May 17, 3:00 AM)
Low39 °F (May 17, 6:30 AM)43% (May 18, 10:30 AM)29.74 "Hg (May 19, 1:30 PM)
Average56 °F76%30.24 "Hg
* Reported May 15 6:30 PM — May 30 7:00 PM, Adelaide, Weather by CustomWeather, © 2015

Note: Actual official high and low records may vary slightly from our data, if they occured in-between our weather recording intervals... More about our weather records

Advertising

Adelaide weather history for previous 24 hours

 ConditionsComfort  
Time TempWeatherWind HumidityBarometerVisibility
7:00 PM
Sat, May 30
57 °FPartly cloudy.9 mph88%30.12 "HgN/A
6:30 PM57 °FPassing clouds.8 mph82%30.12 "HgN/A
6:00 PM55 °FPassing clouds.8 mph88%30.12 "HgN/A
5:30 PM57 °FPassing clouds.8 mph88%30.12 "HgN/A
5:00 PM55 °FPassing clouds.7 mph94%30.12 "HgN/A
4:30 PM55 °FBroken clouds.8 mph94%30.12 "HgN/A
4:00 PM55 °FScattered showers. Partly sunny.13 mph94%30.12 "HgN/A
3:30 PM55 °FScattered showers. Partly sunny.10 mph94%30.12 "HgN/A
3:00 PM55 °FBroken clouds.8 mph94%30.12 "HgN/A
2:34 PM55 °FDrizzle. Partly sunny.9 mph94%30.12 "Hg2 mi
2:18 PM55 °FSprinkles. Broken clouds.14 mph94%30.12 "Hg2 mi
2:00 PM59 °FPartly sunny.13 mph77%30.12 "HgN/A
1:30 PM59 °FPartly sunny.14 mph77%30.12 "HgN/A
1:00 PM59 °FScattered clouds.15 mph72%30.15 "HgN/A
12:30 PM59 °FPartly sunny.15 mph77%30.15 "HgN/A
12:00 PM57 °FScattered clouds.12 mph82%30.18 "HgN/A
11:30 AM55 °FScattered showers. Broken clouds.18 mph88%30.18 "HgN/A
11:00 AM59 °FPartly sunny.15 mph77%30.21 "HgN/A
10:30 AM57 °FPartly sunny.12 mph82%30.21 "HgN/A
10:00 AM57 °FPartly sunny.10 mph72%30.21 "HgN/A
9:30 AM55 °FPartly sunny.9 mph77%30.21 "HgN/A
9:00 AM54 °FPartly sunny.9 mph77%30.21 "HgN/A
8:30 AM52 °FPartly sunny.9 mph82%30.21 "HgN/A
8:00 AM50 °FScattered clouds.6 mph88%30.21 "HgN/A
7:30 AM48 °FScattered clouds.6 mph94%30.21 "HgN/A
7:00 AM48 °FPartly sunny.6 mph94%30.21 "HgN/A
6:00 AM50 °FPassing clouds.7 mph94%30.21 "HgN/A
5:30 AM50 °FPassing clouds.7 mph94%30.21 "HgN/A
5:00 AM50 °FPassing clouds.6 mph94%30.21 "HgN/A
4:30 AM48 °FPassing clouds.6 mph94%30.21 "HgN/A
4:00 AM48 °FPassing clouds.6 mph94%30.21 "HgN/A
3:30 AM48 °FPassing clouds.7 mph94%30.21 "HgN/A
3:00 AM48 °FPassing clouds.7 mph94%30.21 "HgN/A
2:30 AM48 °FPassing clouds.8 mph100%30.21 "HgN/A
2:00 AM50 °FPassing clouds.8 mph94%30.21 "HgN/A
1:30 AM50 °FPassing clouds.6 mph94%30.21 "HgN/A
1:00 AM50 °FPassing clouds.5 mph94%30.21 "HgN/A
12:30 AM48 °FFog.5 mph100%30.21 "HgN/A
12:00 AM48 °FFog.5 mph100%30.21 "HgN/A
11:30 PM
Fri, May 29
50 °FFog.3 mph94%30.24 "HgN/A
11:00 PM50 °FClear.6 mph94%30.24 "Hg10 mi
10:30 PM52 °FClear.6 mph94%30.24 "Hg10 mi
10:00 PM54 °FClear.No wind94%30.24 "Hg10 mi
9:30 PM55 °FPassing clouds.8 mph82%30.24 "HgN/A
9:00 PM55 °FPassing clouds.5 mph82%30.24 "HgN/A
8:30 PM55 °FPassing clouds.6 mph77%30.24 "HgN/A
8:00 PM55 °FPassing clouds.6 mph82%30.24 "HgN/A
Weather by CustomWeather, © 2015

See weather overviewHow to use our weather pages